Location: Copper Breaks State Park
(34.1132°N, 99.7492°W)
Time: 17:15:37
(UTC-05:00)

Daily predictions for brighter satellites

Satellite Brightness Start Highest point End
(mag) Time Altitude Azimuth Time Altitude Azimuth Time Altitude Azimuth
S3M 4.3 21:11:59 10° N 21:17:54 49° E 21:23:48 10° SSE
Cosmos 1655 Rocket 4.2 21:15:24 10° S 21:21:37 81° W 21:27:51 10° N
Envisat 4.3 21:20:29 10° ESE 21:24:26 23° ENE 21:28:23 10° NNE
ERS-1 Rocket 3.6 21:20:42 10° SE 21:25:22 40° ENE 21:30:03 10° N
Cosmos 2219 4.1 21:21:04 10° SSE 21:25:49 27° ESE 21:30:35 10° NE
Delta 2 Rocket 3.0 21:22:57 10° W 21:26:47 86° NNW 21:30:16 10° ENE
Resurs 01 Rocket 4.0 21:23:36 10° SSW 21:27:07 23° W 21:30:39 10° NW
Cosmos 1441 Rocket 3.1 21:26:14 10° S 21:29:58 66° E 21:33:42 10° NNE
BREEZE M DEB (TANK) 1.3 21:30:27 10° WNW 21:32:21 70° SSW 21:35:24 10° SE
Cosmos 332 Rocket 4.4 21:28:01 10° NNW 21:32:46 57° WSW 21:37:31 10° S
deb Chang Zheng 4 4.0 21:29:22 10° NNE 21:33:29 42° E 21:37:36 10° S
Cosmos 2322 Rocket 2.3 21:33:26 10° NNW 21:39:03 82° WSW 21:44:40 10° SSE
Cosmos 2151 3.9 21:35:42 10° SSE 21:39:17 28° E 21:42:52 10° NNE
Cosmos 1777 Rocket 4.1 21:35:44 10° SSW 21:41:00 87° WNW 21:46:17 10° NNE
In-Cosmos 22 4.5 21:37:02 10° SSW 21:42:47 79° W 21:48:33 10° N
NOSS 3-1 (C) 3.8 21:37:41 10° S 21:42:54 37° ESE 21:48:29 10° NE
Cosmos 1515 Rocket 3.6 21:40:30 10° N 21:44:54 64° E 21:49:15 10° SSE
FENGYUN 3A 4.2 21:40:07 10° S 21:45:27 61° W 21:50:50 10° NNW
USA 186 2.9 21:44:52 10° SSW 21:46:50 27° W 21:48:50 10° NW
Cosmos 1980 Rocket 4.3 21:42:31 10° NW 21:46:59 24° WSW 21:51:27 10° SSW
Cosmos 2360 Rocket 2.9 21:42:36 10° N 21:47:54 40° ENE 21:52:21 14° SE
SL-16 R/B 2.5 21:44:58 10° NNW 21:50:37 70° WSW 21:56:14 10° S
GPS 2-04 Rocket1 4.3 21:48:36 10° W 21:52:19 27° SSW 21:55:23 13° SSE
DELTA 2 R/B (1) 3.9 21:47:16 10° WNW 21:52:46 63° NNE 21:58:07 11° E
Cosmos 2058 4.1 21:52:03 15° SE 21:54:23 24° E 21:57:42 10° NE
Cosmos 1908 3.4 21:52:19 10° N 21:56:09 52° E 21:59:14 15° SSE
OAO 2 Rocket 3.6 21:51:58 10° SW 21:57:05 50° SSE 22:02:12 10° E
Meteor 2-20 Rocket 4.5 21:51:11 10° S 21:57:16 66° E 22:03:21 10° NNE
H-2A R/B 1.7 21:57:55 10° SW 22:00:09 19° S 22:00:13 19° S
Cosmos 1674 2.6 21:56:36 10° S 22:00:24 81° E 22:04:15 10° N
Cosmos 1151 Rocket 3.2 21:57:30 10° N 22:01:45 55° E 22:05:02 16° SSE
Cosmos 405 3.1 21:59:54 10° N 22:03:29 57° E 22:05:50 19° SSE
OE (NEXTSAT) 4.3 22:02:08 10° NW 22:05:43 86° NE 22:07:46 24° ESE
ALOS 4.0 22:01:45 10° SSW 22:05:51 30° W 22:09:58 10° NW
Cosmos 2266 Rocket 4.0 22:01:31 10° S 22:07:51 86° E 22:14:05 10° N
Cosmos 1805 Rocket 4.2 22:06:22 18° SSE 22:09:07 37° E 22:13:14 10° NNE
OTV 4 1.7 22:07:40 10° SSW 22:09:38 23° S 22:09:38 23° S
H-2A R/B 4.2 22:08:37 10° E 22:10:25 12° ENE 22:12:13 10° NE
Cosmos 2227 Rocket 3.7 22:11:30 16° ESE 22:11:46 16° E 22:14:59 10° ENE
Tiangong 1 1.3 22:09:47 10° WSW 22:12:53 67° NNW 22:15:57 10° ENE
CZ-4B R/B 4.0 22:08:54 10° NNE 22:13:48 39° E 22:17:02 19° SSE
YAOGAN 6 3.8 22:12:45 22° ESE 22:13:55 26° ENE 22:16:58 10° NNE
Cosmos 1680 Rocket 3.6 22:11:03 10° N 22:16:15 61° ENE 22:19:32 23° SE
Cosmos 1300 3.9 22:13:46 10° NNE 22:17:00 25° ENE 22:17:53 23° E
Cosmos 2315 Rocket 4.2 22:11:55 10° N 22:17:57 52° E 22:21:58 21° SSE
Cosmos 923 Rocket 4.0 22:15:38 10° NNW 22:20:51 89° WSW 22:24:27 20° SSE
Hubble Space Telescope 2.7 22:19:16 10° SSW 22:20:32 14° S 22:20:32 14° S
SPOT 1/Viking Rocket 4.3 22:19:48 23° ESE 22:22:17 36° ENE 22:26:56 10° N
Cosmos 1939 Rocket 3.2 22:21:30 17° S 22:24:29 61° WSW 22:28:21 10° NNW
Cosmos 1898 Rocket 3.8 22:21:56 19° SSE 22:25:22 45° ESE 22:30:19 10° NNE
H-2A R/B 2.6 22:22:16 14° S 22:26:00 61° WSW 22:30:29 10° NNW
Cosmos 2333 Rocket 4.1 22:25:14 10° NNE 22:28:41 16° NE 22:31:18 12° E
Cosmos 1437 Rocket 4.0 22:26:39 10° NNW 22:30:12 37° W 22:33:26 12° SSW
Cosmos 1707 Rocket 4.0 22:27:29 10° N 22:31:39 42° E 22:32:57 33° ESE
Cosmos 1666 Rocket 3.8 22:29:56 31° SSE 22:31:39 49° E 22:35:55 10° NNE
Cosmos 2150 Rocket 4.2 22:28:33 16° S 22:32:45 57° ESE 22:38:07 10° NNE
PSLV R/B 3.0 22:33:00 50° SSE 22:33:43 89° ENE 22:36:47 10° N
SPOT 5 2.7 22:32:35 26° SSE 22:35:10 87° WSW 22:39:57 10° NNW
MetOp-A 4.1 22:33:17 26° SSE 22:36:21 76° ENE 22:41:42 10° N
Cosmos 2297 Rocket 3.7 22:39:29 18° E 22:39:29 18° E 22:42:31 10° ENE
COSMOS 2428 3.0 22:35:23 10° N 22:40:57 53° ENE 22:43:19 32° SE
ARGOS 3.5 22:41:02 32° SE 22:43:10 49° ENE 22:48:22 10° N
Cosmos 304 Rocket 4.1 22:40:47 10° NNW 22:45:31 60° WSW 22:47:57 28° S
NOSS 3-1 (A) 3.3 22:40:55 10° SSW 22:46:42 89° WNW 22:53:03 10° NNE
Cosmos 2219 Rocket 3.3 22:43:58 10° N 22:48:50 30° ENE 22:50:35 25° E
Cosmos 1745 Rocket 4.4 22:47:12 32° SE 22:49:25 44° E 22:55:13 10° NNE
Cosmos 1726 2.0 22:54:11 10° N 22:57:58 69° E 22:58:06 68° E
CZ-4C R/B 4.2 22:59:54 30° NE 22:59:54 30° NE 23:02:29 10° N
Cosmos 2237 4.1 22:56:47 10° NNW 23:02:32 88° ENE 23:04:31 43° SSE
Envisat 4.3 22:59:40 15° SSW 23:03:12 34° W 23:07:48 10° NNW
Landsat 7 4.2 23:05:56 44° E 23:06:32 47° ENE 23:11:06 10° N
USA 32 4.0 23:03:24 10° N 23:08:38 65° E 23:09:42 52° SE
Cosmos 292 Rocket 4.0 23:04:11 10° N 23:08:49 50° ENE 23:09:18 48° E
ATLAS 2AS CENTAUR R/B 3.0 23:05:37 32° S 23:08:52 52° ESE 23:16:28 10° NE
Delta 2 Rocket 3.2 23:05:49 10° W 23:09:00 62° NW 23:09:00 62° NW
Cosmos 1271 Rocket 2.9 23:11:52 10° N 23:15:19 63° NE 23:15:19 63° NE
Cosmos 1703 3.2 23:16:40 82° NW 23:16:40 82° NW 23:20:28 10° N
SL-14 R/B 4.4 23:15:32 30° SW 23:16:52 41° W 23:20:39 10° N
Meteor 1-4 Rocket 2.9 23:16:39 10° N 23:19:51 64° N 23:19:51 64° N
Cosmos 2237 Rocket 3.0 23:15:19 10° N 23:20:33 36° ENE 23:21:31 34° E
Cosmos 2333 4.1 23:15:05 10° NNW 23:20:51 88° WSW 23:22:12 55° SSE
Cosmos 2082 3.6 23:19:48 54° SSE 23:20:58 68° ESE 23:26:39 10° NNE
Iridium 2 3.9 23:22:18 66° N 23:22:18 66° N 23:25:39 10° N
Terra 2.2 23:22:18 47° ENE 23:22:24 48° ENE 23:26:58 10° N
Meteor 2-10 4.2 23:17:20 10° N 23:23:05 71° E 23:24:07 57° SE
Cosmos 2242 Rocket 3.5 23:19:27 10° N 23:23:57 81° W 23:24:14 75° SSW
Cosmos 1937 Rocket 3.7 23:21:29 30° SW 23:24:05 67° WNW 23:29:17 10° N
Sich 1 4.2 23:25:43 27° SW 23:27:27 39° W 23:31:36 10° N
CARTOSAT-1 3.9 23:28:16 54° NE 23:28:16 54° NE 23:32:07 10° N
ATLAS 3B R/B 4.2 23:22:46 10° N 23:28:18 24° NE 23:31:15 18° E
Lacrosse 4 Rocket 4.0 23:27:44 10° NNE 23:29:20 12° NE 23:29:44 12° ENE
Cosmos 1862 Rocket 4.2 23:26:13 10° N 23:29:43 44° NE 23:29:43 44° NE
NOAA 11 4.4 23:29:08 46° SSW 23:30:33 62° W 23:35:57 10° NNW
Cosmos 1633 Rocket 4.3 23:29:42 28° WSW 23:31:15 37° W 23:35:20 10° NNW
Cosmos 2360 Rocket 4.0 23:27:13 10° NW 23:31:34 23° W 23:34:09 17° SW
Cosmos 1626 3.3 23:35:44 39° NNE 23:35:44 39° NNE 23:38:11 10° N
Cosmos 990 Rocket 4.0 23:33:44 54° SW 23:34:51 76° WNW 23:40:01 10° NNE
DELTA 2 DEB (DPAF) 4.2 23:36:21 73° W 23:36:21 73° W 23:40:49 10° NNW
DELTA 2 R/B (1) 3.9 23:33:51 10° WNW 23:38:52 48° SW 23:38:52 48° SW
OAO 2 Rocket 3.3 23:36:30 10° W 23:41:51 86° N 23:42:19 74° ENE
H-2A R/B 2.0 23:48:40 74° SSW 23:49:01 79° WSW 23:54:28 10° NNW
Tiangong 1 3.9 23:47:29 10° WNW 23:49:20 19° NNW 23:49:20 19° NNW
COSMOS 2455 3.9 23:47:05 10° N 23:52:26 32° ENE 23:53:21 31° ENE
